| time (UTC) | temp F | wind direction | speed knots | gust knots | rain 1hr in | rain 24hr in | rain mn in | humidity % | barometer mb |
| 20260502224523 | 76 | 72 | 0.0 | 1.7 | 0.00 | 0.29 | 0.01 | 49 | 1018.8 |
| 20260502224010 | 76 | 60 | 0.0 | 1.7 | 0.00 | 0.30 | 0.01 | 50 | 1018.8 |
| 20260502223511 | 76 | 78 | 0.9 | 1.7 | 0.00 | 0.31 | 0.01 | 49 | 1018.8 |
| 20260502223020 | 76 | 75 | 0.0 | 0.9 | 0.00 | 0.31 | 0.01 | 53 | 1018.8 |
| 20260502222507 | 76 | 88 | 0.0 | 0.9 | 0.00 | 0.31 | 0.01 | 51 | 1018.8 |
| 20260502222006 | 76 | 67 | 0.0 | 3.5 | 0.00 | 0.31 | 0.01 | 52 | 1019.0 |
| 20260502221533 | 76 | 343 | 0.9 | 3.5 | 0.00 | 0.31 | 0.01 | 49 | 1018.9 |
| 20260502221006 | 76 | 88 | 0.0 | 1.7 | 0.00 | 0.31 | 0.01 | 51 | 1019.0 |
| 20260502220507 | 76 | 93 | 0.0 | 2.6 | 0.00 | 0.31 | 0.01 | 50 | 1018.9 |
| 20260502220026 | 76 | 51 | 0.9 | 4.3 | 0.00 | 0.31 | 0.01 | 51 | 1019.1 |
| 20260502215508 | 76 | 98 | 0.9 | 7.0 | 0.00 | 0.31 | 0.01 | 49 | 1019.0 |
| 20260502215008 | 77 | 324 | 1.7 | 7.0 | 0.00 | 0.31 | 0.01 | 48 | 1018.9 |
| 20260502214527 | 76 | 229 | 0.0 | 2.6 | 0.00 | 0.31 | 0.01 | 49 | 1018.9 |
| 20260502214007 | 76 | 77 | 0.0 | 2.6 | 0.00 | 0.33 | 0.01 | 50 | 1019.1 |
| 20260502213509 | 76 | 330 | 0.9 | 2.6 | 0.00 | 0.34 | 0.01 | 48 | 1019.1 |
| 20260502213027 | 77 | 214 | 0.0 | 1.7 | 0.00 | 0.36 | 0.01 | 49 | 1019.2 |
| 20260502212507 | 77 | 115 | 0.0 | 2.6 | 0.00 | 0.39 | 0.01 | 49 | 1019.1 |
| 20260502212010 | 76 | 10 | 0.9 | 2.6 | 0.00 | 0.41 | 0.01 | 48 | 1019.2 |
| 20260502211526 | 76 | 319 | 0.9 | 2.6 | 0.00 | 0.43 | 0.01 | 51 | 1019.2 |
| 20260502211008 | 76 | 95 | 0.0 | 1.7 | 0.00 | 0.45 | 0.01 | 49 | 1019.2 |
| 20260502210502 | 76 | 57 | 0.0 | 1.7 | 0.00 | 0.47 | 0.01 | 51 | 1019.3 |
| 20260502210024 | 76 | 61 | 0.0 | 1.7 | 0.00 | 0.47 | 0.01 | 49 | 1019.4 |
| 20260502205509 | 77 | 72 | 0.0 | 1.7 | 0.00 | 0.48 | 0.01 | 54 | 1019.4 |
| 20260502205007 | 77 | 302 | 0.0 | 4.3 | 0.00 | 0.48 | 0.01 | 50 | 1019.5 |
| 20260502204525 | 77 | 291 | 0.9 | 4.3 | 0.00 | 0.50 | 0.01 | 52 | 1019.5 |
| 20260502204006 | 77 | 320 | 0.9 | 3.5 | 0.00 | 0.50 | 0.01 | 50 | 1019.6 |
| 20260502203503 | 77 | 23 | 0.9 | 3.5 | 0.00 | 0.50 | 0.01 | 51 | 1019.6 |
| 20260502203021 | 76 | 296 | 0.9 | 4.3 | 0.00 | 0.50 | 0.01 | 50 | 1019.6 |
| 20260502202503 | 76 | 313 | 0.9 | 4.3 | 0.00 | 0.51 | 0.01 | 49 | 1019.7 |
| 20260502202011 | 76 | 291 | 0.0 | 4.3 | 0.00 | 0.51 | 0.01 | 54 | 1019.6 |
| 20260502201519 | 75 | 51 | 0.9 | 4.3 | 0.00 | 0.51 | 0.01 | 54 | 1019.7 |
| 20260502201003 | 75 | 323 | 0.0 | 4.3 | 0.00 | 0.52 | 0.01 | 51 | 1019.7 |
| 20260502200512 | 75 | 276 | 0.9 | 6.1 | 0.00 | 0.52 | 0.01 | 51 | 1019.8 |
| 20260502200014 | 75 | 319 | 2.6 | 6.1 | 0.00 | 0.54 | 0.01 | 48 | 1019.8 |
| 20260502195504 | 75 | 79 | 0.0 | 1.7 | 0.00 | 0.55 | 0.01 | 51 | 1019.9 |
| 20260502195004 | 75 | 248 | 0.0 | 1.7 | 0.00 | 0.56 | 0.01 | 51 | 1019.9 |
| 20260502194510 | 75 | 146 | 0.0 | 1.7 | 0.00 | 0.57 | 0.01 | 52 | 1019.9 |
| 20260502194007 | 75 | 39 | 0.9 | 6.1 | 0.00 | 0.58 | 0.01 | 51 | 1020.0 |
| 20260502193508 | 75 | 59 | 0.0 | 6.1 | 0.00 | 0.60 | 0.01 | 51 | 1020.1 |
| 20260502193009 | 75 | 326 | 0.9 | 5.2 | 0.00 | 0.61 | 0.01 | 50 | 1020.2 |
| 20260502192509 | 75 | 328 | 0.9 | 4.3 | 0.00 | 0.62 | 0.01 | 51 | 1020.2 |
| 20260502192007 | 76 | 316 | 1.7 | 4.3 | 0.00 | 0.63 | 0.01 | 47 | 1020.3 |
| 20260502191531 | 75 | 116 | 0.9 | 4.3 | 0.00 | 0.63 | 0.01 | 50 | 1020.4 |
| 20260502191012 | 75 | 141 | 0.9 | 4.3 | 0.00 | 0.63 | 0.01 | 55 | 1020.4 |
| 20260502190504 | 75 | 93 | 0.9 | 4.3 | 0.00 | 0.63 | 0.01 | 51 | 1020.5 |
| 20260502190028 | 75 | 287 | 0.9 | 4.3 | 0.00 | 0.63 | 0.01 | 54 | 1020.5 |
| 20260502185505 | 75 | 72 | 0.0 | 5.2 | 0.00 | 0.64 | 0.01 | 50 | 1020.5 |
| 20260502185002 | 75 | 161 | 0.9 | 5.2 | 0.00 | 0.64 | 0.01 | 51 | 1020.6 |
| 20260502184523 | 75 | 305 | 0.9 | 3.5 | 0.00 | 0.64 | 0.01 | 54 | 1020.8 |
| 20260502184004 | 74 | 302 | 0.0 | 3.5 | 0.00 | 0.64 | 0.01 | 55 | 1020.8 |
| 20260502183508 | 74 | 66 | 0.9 | 3.5 | 0.00 | 0.64 | 0.01 | 52 | 1020.8 |
| 20260502183021 | 74 | 116 | 0.9 | 3.5 | 0.00 | 0.64 | 0.01 | 57 | 1020.9 |
| 20260502182506 | 74 | 72 | 0.9 | 3.5 | 0.00 | 0.64 | 0.01 | 53 | 1020.9 |
| 20260502182010 | 74 | 103 | 0.9 | 7.0 | 0.00 | 0.64 | 0.01 | 52 | 1021.1 |
| 20260502181518 | 73 | 223 | 2.6 | 7.0 | 0.00 | 0.64 | 0.01 | 53 | 1021.2 |
| 20260502181004 | 73 | 77 | 0.9 | 6.1 | 0.00 | 0.64 | 0.01 | 53 | 1021.2 |
| 20260502180508 | 73 | 41 | 1.7 | 6.1 | 0.00 | 0.64 | 0.01 | 55 | 1021.2 |
| 20260502170507 | 69 | 60 | 0.0 | 3.5 | 0.00 | 0.69 | 0.01 | 64 | 1021.6 |
| 20260502164004 | 66 | 218 | 0.0 | 3.5 | 0.00 | 0.70 | 0.01 | 67 | 1021.6 |
| 20260502163508 | 66 | 120 | 0.9 | 3.5 | 0.00 | 0.71 | 0.01 | 69 | 1021.6 |
| 20260502163034 | 65 | 263 | 0.0 | 3.5 | 0.00 | 0.71 | 0.01 | 70 | 1021.5 |
| 20260502162505 | 65 | 172 | 0.0 | 1.7 | 0.00 | 0.72 | 0.01 | 71 | 1021.5 |
| 20260502162010 | 65 | 288 | 0.0 | 3.5 | 0.00 | 0.73 | 0.01 | 71 | 1021.6 |
| 20260502161520 | 65 | 300 | 0.0 | 4.3 | 0.00 | 0.74 | 0.01 | 73 | 1021.6 |
| 20260502161012 | 64 | 335 | 0.9 | 4.3 | 0.00 | 0.76 | 0.01 | 73 | 1021.5 |
| 20260502160509 | 64 | 28 | 0.0 | 4.3 | 0.00 | 0.78 | 0.01 | 78 | 1021.5 |
| 20260502152007 | 61 | 321 | 0.0 | 1.7 | 0.00 | 1.16 | 0.01 | 84 | 1021.2 |
| 20260502151527 | 61 | 13 | 0.0 | 3.5 | 0.00 | 1.16 | 0.01 | 85 | 1021.3 |
| 20260502151006 | 60 | 122 | 0.0 | 3.5 | 0.00 | 1.16 | 0.01 | 84 | 1021.2 |
| 20260502150510 | 60 | 1 | 0.0 | 2.6 | 0.01 | 1.16 | 0.01 | 85 | 1021.3 |
| 20260502130512 | 52 | 319 | 0.9 | 4.3 | 0.00 | 1.72 | 0.00 | 96 | 1020.1 |
| 20260502123514 | 50 | 319 | 0.0 | 2.6 | 0.00 | 2.06 | 0.00 | 97 | 1019.8 |
| 20260502123044 | 50 | 329 | 0.0 | 1.7 | 0.00 | 2.09 | 0.00 | 97 | 1019.6 |
| 20260502122512 | 50 | 323 | 0.0 | 1.7 | 0.00 | 2.15 | 0.00 | 97 | 1019.5 |
| 20260502122018 | 50 | 333 | 0.0 | 0.9 | 0.00 | 2.26 | 0.00 | 97 | 1019.5 |
| 20260502121522 | 50 | 333 | 0.0 | 0.9 | 0.00 | 2.30 | 0.00 | 97 | 1019.5 |
| 20260502121004 | 50 | 333 | 0.0 | 0.9 | 0.00 | 2.32 | 0.00 | 97 | 1019.4 |
| 20260502120504 | 50 | 333 | 0.0 | 0.9 | 0.00 | 2.38 | 0.00 | 97 | 1019.4 |
| 20260502115508 | 50 | 328 | 0.0 | 0.9 | 0.00 | 2.44 | 0.00 | 96 | 1019.3 |
| 20260502115011 | 50 | 328 | 0.0 | 0.9 | 0.00 | 2.48 | 0.00 | 96 | 1019.2 |
| 20260502114515 | 50 | 328 | 0.0 | 0.9 | 0.00 | 2.54 | 0.00 | 96 | 1019.2 |
| 20260502114003 | 50 | 328 | 0.0 | 0.9 | 0.00 | 2.70 | 0.00 | 96 | 1019.2 |
| 20260502113507 | 50 | 328 | 0.0 | 0.9 | 0.00 | 2.72 | 0.00 | 96 | 1019.1 |
| 20260502113014 | 50 | 349 | 0.0 | 0.9 | 0.00 | 2.73 | 0.00 | 96 | 1019.1 |
| 20260502112507 | 50 | 347 | 0.0 | 0.9 | 0.00 | 2.74 | 0.00 | 96 | 1019.1 |
| 20260502112007 | 50 | 347 | 0.0 | 0.9 | 0.00 | 2.75 | 0.00 | 96 | 1018.8 |
| 20260502111511 | 50 | 347 | 0.0 | 0.9 | 0.00 | 2.77 | 0.00 | 96 | 1018.8 |
| 20260502111010 | 50 | 347 | 0.0 | 0.9 | 0.00 | 2.80 | 0.00 | 96 | 1018.7 |
| 20260502110504 | 50 | 349 | 0.0 | 0.9 | 0.00 | 2.82 | 0.00 | 96 | 1018.6 |
| 20260502110009 | 50 | 318 | 0.0 | 0.0 | 0.00 | 2.83 | 0.00 | 96 | 1018.5 |
| 20260502105506 | 50 | 318 | 0.0 | 0.0 | 0.00 | 2.86 | 0.00 | 96 | 1018.5 |
| 20260502105005 | 50 | 318 | 0.0 | 0.9 | 0.00 | 2.91 | 0.00 | 96 | 1018.5 |
| 20260502104525 | 50 | 317 | 0.0 | 0.9 | 0.00 | 2.94 | 0.00 | 96 | 1018.5 |
| 20260502104005 | 50 | 327 | 0.0 | 0.9 | 0.00 | 2.98 | 0.00 | 96 | 1018.4 |
| 20260502103504 | 50 | 321 | 0.0 | 1.7 | 0.00 | 2.99 | 0.00 | 96 | 1018.4 |
| 20260502103023 | 50 | 321 | 0.0 | 2.6 | 0.00 | 3.01 | 0.00 | 96 | 1018.4 |
| 20260502102507 | 50 | 316 | 0.0 | 2.6 | 0.00 | 3.02 | 0.00 | 96 | 1018.3 |
| 20260502102005 | 50 | 300 | 0.0 | 1.7 | 0.00 | 3.02 | 0.00 | 96 | 1018.2 |
| 20260502101519 | 50 | 348 | 0.0 | 1.7 | 0.00 | 3.02 | 0.00 | 96 | 1018.1 |
| 20260502101006 | 50 | 316 | 0.0 | 1.7 | 0.00 | 3.02 | 0.00 | 96 | 1018.1 |
| 20260502100508 | 51 | 328 | 0.0 | 2.6 | 0.00 | 3.03 | 0.00 | 96 | 1018.1 |
| 20260502091512 | 51 | 300 | 0.0 | 2.6 | 0.00 | 3.27 | 0.00 | 97 | 1017.3 |
| 20260502091004 | 51 | 222 | 0.0 | 0.9 | 0.00 | 3.28 | 0.00 | 96 | 1017.2 |
| 20260502090506 | 51 | 219 | 0.0 | 0.9 | 0.00 | 3.29 | 0.00 | 96 | 1017.0 |
| 20260502071514 | 53 | 156 | 0.0 | 0.0 | 0.00 | 3.69 | 0.00 | 97 | 1016.6 |
| 20260502071006 | 53 | 156 | 0.0 | 0.0 | 0.00 | 3.69 | 0.00 | 97 | 1016.7 |
| 20260502070507 | 53 | 156 | 0.0 | 0.0 | 0.00 | 3.69 | 0.00 | 97 | 1016.9 |
| 20260502070012 | 53 | 156 | 0.0 | 0.0 | 0.00 | 3.69 | 0.00 | 97 | 1016.8 |
| 20260502065508 | 53 | 155 | 0.0 | 0.0 | 0.00 | 3.69 | 0.00 | 97 | 1016.9 |
| 20260502065011 | 53 | 156 | 0.0 | 0.0 | 0.00 | 3.69 | 0.00 | 97 | 1016.9 |
| 20260502064508 | 53 | 194 | 0.0 | 0.0 | 0.00 | 3.69 | 0.00 | 97 | 1016.8 |
| 20260502064007 | 53 | 195 | 0.0 | 0.9 | 0.00 | 3.69 | 0.00 | 97 | 1016.7 |
| 20260502063504 | 53 | 184 | 0.0 | 0.9 | 0.00 | 3.69 | 0.00 | 96 | 1016.6 |
| 20260502063023 | 53 | 73 | 0.0 | 0.9 | 0.00 | 3.69 | 0.00 | 96 | 1016.6 |
| 20260502062506 | 53 | 115 | 0.0 | 0.9 | 0.00 | 3.70 | 0.00 | 96 | 1016.5 |
| 20260502062001 | 53 | 223 | 0.0 | 0.9 | 0.00 | 3.70 | 0.00 | 97 | 1016.5 |
| 20260502061523 | 53 | 224 | 0.0 | 0.9 | 0.00 | 3.70 | 0.00 | 96 | 1016.5 |
| 20260502061006 | 53 | 100 | 0.0 | 0.9 | 0.00 | 3.70 | 0.00 | 96 | 1016.6 |
| 20260502060506 | 53 | 44 | 0.0 | 0.9 | 0.00 | 3.70 | 0.00 | 96 | 1016.5 |
| 20260502060022 | 53 | 101 | 0.0 | 1.7 | 0.00 | 3.71 | 0.00 | 96 | 1016.5 |
| 20260502055503 | 53 | 101 | 0.0 | 1.7 | 0.00 | 3.72 | 0.00 | 96 | 1016.5 |
| 20260502055008 | 53 | 342 | 0.0 | 3.5 | 0.00 | 3.72 | 0.00 | 96 | 1016.7 |
| 20260502054522 | 53 | 258 | 0.0 | 3.5 | 0.00 | 3.72 | 0.00 | 96 | 1016.7 |
| 20260502054005 | 53 | 59 | 0.0 | 1.7 | 0.00 | 3.72 | 0.00 | 96 | 1016.6 |
| 20260502053507 | 53 | 51 | 0.0 | 1.7 | 0.00 | 3.72 | 0.00 | 96 | 1016.5 |
| 20260502053018 | 54 | 73 | 0.0 | 1.7 | 0.00 | 3.72 | 0.00 | 96 | 1016.6 |
| 20260502052510 | 54 | 91 | 0.0 | 0.9 | 0.00 | 3.72 | 0.00 | 96 | 1016.7 |
| 20260502052007 | 54 | 6 | 0.0 | 0.9 | 0.00 | 3.72 | 0.00 | 96 | 1016.6 |
| 20260502051520 | 54 | 82 | 0.0 | 1.7 | 0.00 | 3.72 | 0.00 | 96 | 1016.6 |
| 20260502051011 | 54 | 72 | 0.0 | 3.5 | 0.00 | 3.72 | 0.00 | 97 | 1016.5 |
| 20260502050507 | 54 | 210 | 0.0 | 3.5 | 0.00 | 3.72 | 0.00 | 96 | 1016.5 |
| 20260502050027 | 54 | 210 | 0.0 | 5.2 | 0.00 | 3.72 | 0.00 | 97 | 1016.6 |
| 20260502045507 | 54 | 255 | 0.0 | 5.2 | 0.00 | 3.72 | 3.72 | 96 | 1016.5 |
| 20260502045007 | 54 | 274 | 0.0 | 1.7 | 0.00 | 3.72 | 3.72 | 96 | 1016.4 |
| 20260502044528 | 54 | 313 | 0.0 | 1.7 | 0.00 | 3.72 | 3.72 | 96 | 1016.4 |
| 20260502044007 | 54 | 108 | 0.0 | 1.7 | 0.00 | 3.72 | 3.72 | 96 | 1016.3 |
| 20260502043505 | 54 | 236 | 0.0 | 2.6 | 0.00 | 3.72 | 3.72 | 96 | 1016.3 |
| 20260502043026 | 54 | 249 | 0.0 | 2.6 | 0.00 | 3.72 | 3.72 | 96 | 1016.3 |
| 20260502042509 | 54 | 77 | 0.0 | 2.6 | 0.00 | 3.72 | 3.72 | 96 | 1016.3 |
| 20260502042015 | 54 | 35 | 0.0 | 2.6 | 0.00 | 3.72 | 3.72 | 96 | 1016.3 |
| 20260502041528 | 54 | 44 | 0.0 | 2.6 | 0.00 | 3.72 | 3.72 | 96 | 1016.3 |
| 20260502041003 | 54 | 250 | 0.0 | 2.6 | 0.00 | 3.72 | 3.72 | 97 | 1016.3 |
| 20260502040506 | 54 | 42 | 0.0 | 1.7 | 0.00 | 3.72 | 3.72 | 97 | 1016.3 |
| 20260502040022 | 54 | 256 | 0.0 | 3.5 | 0.00 | 3.72 | 3.72 | 97 | 1016.4 |
| 20260502035503 | 55 | 234 | 0.0 | 3.5 | 0.00 | 3.72 | 3.72 | 97 | 1016.3 |
| 20260502035010 | 55 | 166 | 0.0 | 1.7 | 0.00 | 3.72 | 3.72 | 97 | 1016.4 |
| 20260502034522 | 55 | 222 | 0.0 | 3.5 | 0.00 | 3.72 | 3.72 | 97 | 1016.4 |
| 20260502034008 | 55 | 319 | 0.0 | 3.5 | 0.00 | 3.72 | 3.72 | 97 | 1016.4 |
| 20260502033508 | 55 | 44 | 0.0 | 2.6 | 0.00 | 3.72 | 3.72 | 97 | 1016.4 |
| 20260502033019 | 55 | 326 | 0.0 | 7.0 | 0.00 | 3.72 | 3.72 | 97 | 1016.4 |
| 20260502032508 | 55 | 307 | 0.0 | 7.0 | 0.00 | 3.72 | 3.72 | 97 | 1016.3 |
| 20260502032009 | 55 | 330 | 0.9 | 3.5 | 0.00 | 3.72 | 3.72 | 97 | 1016.3 |
| 20260502031514 | 55 | 41 | 0.0 | 2.6 | 0.00 | 3.72 | 3.72 | 97 | 1016.1 |
| 20260502031010 | 55 | 318 | 0.0 | 3.5 | 0.00 | 3.72 | 3.72 | 97 | 1016.1 |
| 20260502030509 | 55 | 333 | 0.0 | 3.5 | 0.00 | 3.72 | 3.72 | 97 | 1015.9 |
| 20260502030032 | 55 | 211 | 0.0 | 1.7 | 0.00 | 3.72 | 3.72 | 97 | 1015.9 |
| 20260502025507 | 55 | 214 | 0.0 | 0.9 | 0.00 | 3.72 | 3.72 | 97 | 1015.8 |
| 20260502025006 | 55 | 213 | 0.0 | 1.7 | 0.00 | 3.72 | 3.72 | 97 | 1015.5 |
| 20260502024528 | 54 | 230 | 0.0 | 1.7 | 0.00 | 3.72 | 3.72 | 97 | 1015.4 |
| 20260502024007 | 54 | 236 | 0.0 | 1.7 | 0.00 | 3.72 | 3.72 | 97 | 1015.3 |
| 20260502023503 | 54 | 138 | 0.0 | 1.7 | 0.00 | 3.72 | 3.72 | 96 | 1014.9 |
| 20260502023025 | 54 | 37 | 0.0 | 1.7 | 0.00 | 3.72 | 3.72 | 96 | 1014.5 |
| 20260502022508 | 55 | 75 | 0.0 | 4.3 | 0.00 | 3.72 | 3.72 | 96 | 1014.5 |
| 20260502022007 | 55 | 98 | 0.9 | 4.3 | 0.00 | 3.72 | 3.72 | 97 | 1014.5 |
| 20260502021525 | 55 | 68 | 0.0 | 0.9 | 0.01 | 3.72 | 3.72 | 97 | 1014.5 |
| 20260502021006 | 55 | 248 | 0.0 | 0.9 | 0.01 | 3.72 | 3.72 | 97 | 1014.6 |
| 20260502020510 | 55 | 226 | 0.0 | 0.9 | 0.01 | 3.72 | 3.72 | 97 | 1014.7 |
| 20260502020022 | 55 | 209 | 0.0 | 1.7 | 0.01 | 3.72 | 3.72 | 97 | 1014.7 |
| 20260502015509 | 55 | 79 | 0.0 | 4.3 | 0.01 | 3.72 | 3.72 | 96 | 1014.7 |
| 20260502015008 | 55 | 352 | 0.0 | 4.3 | 0.01 | 3.72 | 3.72 | 96 | 1014.7 |
| 20260502014522 | 55 | 70 | 0.0 | 1.7 | 0.01 | 3.72 | 3.72 | 96 | 1014.5 |
| 20260502014007 | 55 | 41 | 0.0 | 4.3 | 0.02 | 3.72 | 3.72 | 96 | 1014.5 |
| 20260502013509 | 55 | 314 | 0.0 | 4.3 | 0.03 | 3.72 | 3.72 | 96 | 1014.4 |
| 20260502013018 | 55 | 231 | 0.0 | 4.3 | 0.04 | 3.72 | 3.72 | 96 | 1014.2 |
| 20260502012513 | 55 | 223 | 0.0 | 4.3 | 0.05 | 3.72 | 3.72 | 96 | 1014.2 |
| 20260502012007 | 55 | 360 | 0.0 | 2.6 | 0.06 | 3.72 | 3.72 | 96 | 1014.2 |
| 20260502011528 | 55 | 314 | 0.0 | 2.6 | 0.05 | 3.71 | 3.71 | 96 | 1014.5 |
| 20260502011009 | 56 | 25 | 0.9 | 4.3 | 0.06 | 3.71 | 3.71 | 96 | 1014.8 |
| 20260502010507 | 56 | 308 | 0.9 | 4.3 | 0.07 | 3.71 | 3.71 | 96 | 1014.6 |
| 20260502010030 | 56 | 333 | 0.0 | 1.7 | 0.07 | 3.71 | 3.71 | 96 | 1014.5 |
| 20260502005509 | 56 | 317 | 0.0 | 1.7 | 0.10 | 3.71 | 3.71 | 96 | 1014.1 |
| 20260502005008 | 56 | 21 | 0.0 | 6.1 | 0.12 | 3.71 | 3.71 | 96 | 1013.8 |
| 20260502004546 | 56 | 298 | 0.0 | 6.1 | 0.12 | 3.71 | 3.71 | 96 | 1013.4 |
| 20260502004008 | 57 | 270 | 0.9 | 3.5 | 0.13 | 3.70 | 3.70 | 96 | 1013.4 |
| 20260502003508 | 57 | 307 | 0.0 | 1.7 | 0.13 | 3.69 | 3.69 | 96 | 1013.3 |
| 20260502003027 | 57 | 42 | 0.0 | 3.5 | 0.12 | 3.68 | 3.68 | 96 | 1013.3 |
| 20260502002510 | 57 | 80 | 0.0 | 3.5 | 0.12 | 3.67 | 3.67 | 96 | 1013.6 |
| 20260502002015 | 57 | 321 | 0.9 | 2.6 | 0.11 | 3.66 | 3.66 | 96 | 1014.0 |
| 20260502001529 | 58 | 321 | 0.0 | 1.7 | 0.12 | 3.66 | 3.66 | 97 | 1014.0 |
| 20260502001004 | 58 | 344 | 0.0 | 2.6 | 0.12 | 3.65 | 3.65 | 97 | 1013.8 |
| 20260502000503 | 58 | 326 | 0.0 | 2.6 | 0.11 | 3.64 | 3.64 | 96 | 1013.4 |
| 20260502000010 | 58 | 335 | 0.0 | 1.7 | 0.12 | 3.64 | 3.64 | 96 | 1013.4 |
| 20260501235506 | 58 | 329 | 0.0 | 1.7 | 0.11 | 3.61 | 3.61 | 96 | 1013.3 |
| 20260501235004 | 58 | 331 | 0.0 | 1.7 | 0.13 | 3.59 | 3.59 | 97 | 1013.3 |
| 20260501234513 | 58 | 334 | 0.0 | 0.9 | 0.15 | 3.59 | 3.59 | 97 | 1013.4 |
| 20260501234009 | 58 | 334 | 0.0 | 2.6 | 0.14 | 3.57 | 3.57 | 97 | 1013.6 |
| 20260501233503 | 58 | 334 | 0.0 | 2.6 | 0.14 | 3.56 | 3.56 | 97 | 1013.4 |
| 20260501233011 | 58 | 321 | 0.0 | 2.6 | 0.14 | 3.56 | 3.56 | 97 | 1013.0 |
| 20260501232508 | 58 | 276 | 0.0 | 1.7 | 0.13 | 3.55 | 3.55 | 97 | 1013.3 |
| 20260501232005 | 58 | 185 | 0.0 | 0.9 | 0.13 | 3.55 | 3.55 | 97 | 1013.0 |
| 20260501231516 | 58 | 141 | 0.0 | 0.9 | 0.12 | 3.54 | 3.54 | 97 | 1012.0 |
| 20260501231004 | 58 | 55 | 0.0 | 0.9 | 0.11 | 3.53 | 3.53 | 96 | 1011.9 |
| 20260501230508 | 58 | 75 | 0.0 | 1.7 | 0.11 | 3.53 | 3.53 | 96 | 1011.8 |
| 20260501230013 | 58 | 93 | 0.0 | 1.7 | 0.10 | 3.52 | 3.52 | 96 | 1011.6 |
| 20260501225504 | 58 | 82 | 0.0 | 3.5 | 0.08 | 3.50 | 3.50 | 96 | 1012.1 |
| 20260501225005 | 58 | 133 | 0.0 | 4.3 | 0.04 | 3.46 | 3.46 | 96 | 1012.1 |